| time (UTC) | temp F | wind direction | speed MPH | gust MPH | rain 1hr in | rain 24hr in | rain mn in | humidity % | barometer mb |
| 20260506230431 | 61 | 91 | 0.0 | 2.0 | 0.05 | 0.31 | 0.30 | 81 | 1004.1 |
| 20260506225430 | 61 | 92 | 0.0 | 2.0 | 0.04 | 0.30 | 0.29 | 81 | 1004.1 |
| 20260506224429 | 61 | 91 | 0.0 | 2.0 | 0.03 | 0.29 | 0.29 | 81 | 1003.7 |
| 20260506223428 | 62 | 91 | 0.0 | 1.0 | 0.01 | 0.28 | 0.27 | 81 | 1003.7 |
| 20260506222428 | 62 | 91 | 0.0 | 3.0 | 0.01 | 0.28 | 0.27 | 81 | 1003.7 |
| 20260506221427 | 62 | 91 | 0.0 | 3.0 | 0.00 | 0.27 | 0.26 | 81 | 1003.7 |
| 20260506220426 | 62 | 110 | 1.0 | 3.0 | 0.00 | 0.28 | 0.26 | 81 | 1003.7 |
| 20260506215323 | 62 | 111 | 1.0 | 3.0 | 0.01 | 0.29 | 0.26 | 81 | 1003.7 |
| 20260506214322 | 62 | 111 | 1.0 | 4.0 | 0.02 | 0.29 | 0.26 | 80 | 1003.7 |
| 20260506213322 | 62 | 112 | 1.0 | 4.0 | 0.02 | 0.32 | 0.26 | 80 | 1003.7 |
| 20260506212321 | 62 | 59 | 1.0 | 3.0 | 0.03 | 0.34 | 0.26 | 80 | 1004.1 |
| 20260506211249 | 62 | 64 | 1.0 | 3.0 | 0.03 | 0.34 | 0.26 | 80 | 1004.1 |
| 20260506210248 | 62 | 65 | 1.0 | 3.0 | 0.03 | 0.33 | 0.25 | 80 | 1004.1 |
| 20260506205216 | 62 | 65 | 1.0 | 9.0 | 0.04 | 0.33 | 0.25 | 80 | 1004.1 |
| 20260506204215 | 62 | 62 | 2.0 | 9.0 | 0.03 | 0.32 | 0.24 | 80 | 1004.1 |
| 20260506203214 | 62 | 50 | 1.0 | 8.0 | 0.05 | 0.32 | 0.24 | 80 | 1004.1 |
| 20260506202213 | 62 | 67 | 1.0 | 5.0 | 0.06 | 0.31 | 0.23 | 80 | 1004.4 |
| 20260506201213 | 62 | 69 | 2.0 | 5.0 | 0.08 | 0.31 | 0.23 | 80 | 1004.4 |
| 20260506200212 | 62 | 53 | 2.0 | 5.0 | 0.08 | 0.30 | 0.22 | 80 | 1004.4 |
| 20260506195211 | 63 | 51 | 1.0 | 5.0 | 0.08 | 0.29 | 0.21 | 80 | 1004.7 |
| 20260506194210 | 63 | 65 | 2.0 | 4.0 | 0.09 | 0.29 | 0.21 | 80 | 1004.7 |
| 20260506193209 | 62 | 68 | 0.0 | 3.0 | 0.07 | 0.27 | 0.18 | 79 | 1005.1 |
| 20260506192137 | 63 | 68 | 0.0 | 4.0 | 0.06 | 0.25 | 0.17 | 79 | 1005.1 |
| 20260506191136 | 63 | 67 | 0.0 | 5.0 | 0.05 | 0.23 | 0.15 | 79 | 1005.1 |
| 20260506190135 | 63 | 61 | 2.0 | 6.0 | 0.06 | 0.22 | 0.14 | 79 | 1005.1 |
| 20260506185135 | 63 | 47 | 2.0 | 6.0 | 0.05 | 0.20 | 0.12 | 79 | 1005.1 |
| 20260506184103 | 63 | 46 | 1.0 | 6.0 | 0.06 | 0.20 | 0.12 | 78 | 1005.4 |
| 20260506183031 | 63 | 74 | 2.0 | 4.0 | 0.06 | 0.19 | 0.11 | 78 | 1005.4 |
| 20260506182030 | 63 | 57 | 1.0 | 10.0 | 0.08 | 0.19 | 0.11 | 78 | 1005.4 |
| 20260506181030 | 63 | 70 | 0.0 | 10.0 | 0.07 | 0.17 | 0.09 | 78 | 1005.8 |
| 20260506180029 | 64 | 54 | 1.0 | 4.0 | 0.07 | 0.17 | 0.08 | 77 | 1006.1 |
| 20260506175028 | 64 | 55 | 3.0 | 4.0 | 0.06 | 0.16 | 0.07 | 77 | 1006.1 |
| 20260506174028 | 64 | 44 | 0.0 | 2.0 | 0.06 | 0.14 | 0.06 | 77 | 1006.1 |
| 20260506173026 | 64 | 44 | 1.0 | 2.0 | 0.05 | 0.13 | 0.05 | 77 | 1006.1 |
| 20260506172025 | 64 | 44 | 1.0 | 2.0 | 0.03 | 0.11 | 0.03 | 77 | 1006.1 |
| 20260506171024 | 65 | 44 | 0.0 | 2.0 | 0.02 | 0.10 | 0.02 | 76 | 1006.4 |
| 20260506170023 | 65 | 44 | 1.0 | 2.0 | 0.01 | 0.09 | 0.01 | 76 | 1006.1 |
| 20260506165023 | 65 | 44 | 0.0 | 2.0 | 0.00 | 0.08 | 0.00 | 76 | 1006.4 |
| 20260506163951 | 65 | 44 | 0.0 | 2.0 | 0.00 | 0.08 | 0.00 | 76 | 1006.1 |
| 20260506162950 | 65 | 44 | 0.0 | 0.0 | 0.00 | 0.08 | 0.00 | 76 | 1006.4 |
| 20260506161949 | 65 | 44 | 0.0 | 1.0 | 0.00 | 0.08 | 0.00 | 76 | 1006.4 |
| 20260506160948 | 65 | 44 | 0.0 | 3.0 | 0.00 | 0.08 | 0.00 | 77 | 1006.4 |
| 20260506155948 | 64 | 46 | 0.0 | 3.0 | 0.00 | 0.08 | 0.00 | 77 | 1006.8 |
| 20260506154947 | 64 | 46 | 1.0 | 2.0 | 0.00 | 0.08 | 0.00 | 77 | 1007.1 |
| 20260506153946 | 63 | 46 | 0.0 | 2.0 | 0.00 | 0.08 | 0.00 | 77 | 1007.5 |
| 20260506152945 | 63 | 51 | 0.0 | 3.0 | 0.00 | 0.08 | 0.00 | 78 | 1007.5 |
| 20260506151945 | 63 | 51 | 0.0 | 3.0 | 0.00 | 0.08 | 0.00 | 78 | 1007.5 |
| 20260506150944 | 62 | 51 | 1.0 | 3.0 | 0.00 | 0.08 | 0.00 | 79 | 1007.5 |
| 20260506145943 | 62 | 51 | 0.0 | 2.0 | 0.00 | 0.08 | 0.00 | 79 | 1007.5 |
| 20260506144942 | 62 | 51 | 0.0 | 3.0 | 0.00 | 0.08 | 0.00 | 79 | 1007.5 |
| 20260506143941 | 62 | 51 | 0.0 | 3.0 | 0.00 | 0.08 | 0.00 | 79 | 1007.5 |
| 20260506142940 | 61 | 51 | 0.0 | 3.0 | 0.00 | 0.08 | 0.00 | 80 | 1007.8 |
| 20260506141939 | 61 | 51 | 1.0 | 3.0 | 0.00 | 0.08 | 0.00 | 80 | 1007.5 |
| 20260506140939 | 61 | 51 | 1.0 | 2.0 | 0.00 | 0.08 | 0.00 | 81 | 1007.8 |
| 20260506135907 | 60 | 51 | 0.0 | 4.0 | 0.00 | 0.08 | 0.00 | 81 | 1007.8 |
| 20260506134906 | 59 | 51 | 1.0 | 4.0 | 0.00 | 0.08 | 0.00 | 81 | 1007.5 |
| 20260506133906 | 59 | 55 | 1.0 | 3.0 | 0.00 | 0.08 | 0.00 | 81 | 1007.8 |
| 20260506132905 | 59 | 34 | 0.0 | 2.0 | 0.00 | 0.08 | 0.00 | 81 | 1007.8 |
| 20260506131904 | 58 | 34 | 1.0 | 2.0 | 0.00 | 0.08 | 0.00 | 81 | 1008.1 |
| 20260506130903 | 58 | 41 | 0.0 | 3.0 | 0.00 | 0.08 | 0.00 | 81 | 1008.1 |
| 20260506125903 | 58 | 50 | 1.0 | 3.0 | 0.00 | 0.08 | 0.00 | 81 | 1008.1 |
| 20260506124902 | 57 | 54 | 0.0 | 4.0 | 0.00 | 0.08 | 0.00 | 81 | 1007.8 |
| 20260506123830 | 57 | 54 | 1.0 | 4.0 | 0.00 | 0.08 | 0.00 | 81 | 1007.8 |
| 20260506122829 | 57 | 57 | 1.0 | 3.0 | 0.00 | 0.08 | 0.00 | 81 | 1007.8 |
| 20260506121757 | 57 | 33 | 1.0 | 3.0 | 0.00 | 0.08 | 0.00 | 81 | 1008.1 |
| 20260506120756 | 56 | 31 | 0.0 | 3.0 | 0.00 | 0.08 | 0.00 | 81 | 1008.1 |
| 20260506115756 | 56 | 31 | 1.0 | 3.0 | 0.00 | 0.08 | 0.00 | 81 | 1008.1 |
| 20260506114724 | 55 | 31 | 0.0 | 0.0 | 0.00 | 0.08 | 0.00 | 80 | 1008.5 |
| 20260506113723 | 55 | 31 | 0.0 | 0.0 | 0.00 | 0.08 | 0.00 | 80 | 1008.5 |
| 20260506112722 | 55 | 31 | 0.0 | 0.0 | 0.00 | 0.08 | 0.00 | 80 | 1008.5 |
| 20260506111723 | 54 | 31 | 0.0 | 0.0 | 0.00 | 0.08 | 0.00 | 80 | 1008.1 |
| 20260506110813 | 54 | 31 | 0.0 | 0.0 | 0.00 | 0.08 | 0.00 | 80 | 1008.1 |
| 20260506105812 | 54 | 31 | 0.0 | 0.0 | 0.00 | 0.08 | 0.00 | 80 | 1007.8 |
| 20260506104811 | 54 | 31 | 0.0 | 0.0 | 0.00 | 0.08 | 0.00 | 80 | 1008.1 |
| 20260506103811 | 54 | 31 | 0.0 | 0.0 | 0.00 | 0.08 | 0.00 | 80 | 1008.1 |
| 20260506102810 | 53 | 31 | 0.0 | 0.0 | 0.00 | 0.08 | 0.00 | 79 | 1008.1 |
| 20260506101809 | 53 | 31 | 0.0 | 0.0 | 0.00 | 0.08 | 0.00 | 79 | 1008.1 |
| 20260506100809 | 53 | 31 | 0.0 | 0.0 | 0.00 | 0.08 | 0.00 | 79 | 1008.1 |
| 20260506095808 | 54 | 31 | 0.0 | 0.0 | 0.00 | 0.08 | 0.00 | 79 | 1007.8 |
| 20260506094807 | 54 | 31 | 0.0 | 0.0 | 0.00 | 0.08 | 0.00 | 79 | 1007.8 |
| 20260506093807 | 54 | 31 | 0.0 | 1.0 | 0.00 | 0.08 | 0.00 | 79 | 1007.8 |
| 20260506092735 | 54 | 31 | 0.0 | 2.0 | 0.00 | 0.08 | 0.00 | 79 | 1007.8 |
| 20260506091734 | 54 | 31 | 1.0 | 2.0 | 0.00 | 0.08 | 0.00 | 79 | 1008.1 |
| 20260506090733 | 55 | 31 | 0.0 | 1.0 | 0.00 | 0.08 | 0.00 | 79 | 1007.8 |
| 20260506085732 | 55 | 31 | 0.0 | 2.0 | 0.00 | 0.08 | 0.00 | 79 | 1007.8 |
| 20260506084731 | 55 | 31 | 0.0 | 2.0 | 0.00 | 0.08 | 0.00 | 79 | 1007.8 |
| 20260506083731 | 55 | 31 | 0.0 | 0.0 | 0.00 | 0.08 | 0.00 | 79 | 1007.8 |
| 20260506082730 | 56 | 31 | 0.0 | 0.0 | 0.00 | 0.08 | 0.00 | 79 | 1008.1 |
| 20260506081657 | 56 | 31 | 0.0 | 0.0 | 0.00 | 0.08 | 0.00 | 80 | 1007.8 |
| 20260506080657 | 56 | 31 | 0.0 | 0.0 | 0.00 | 0.08 | 0.00 | 79 | 1007.8 |
| 20260506072550 | 57 | 31 | 0.0 | 0.0 | 0.00 | 0.08 | 0.00 | 79 | 1008.1 |
| 20260506071550 | 57 | 31 | 0.0 | 0.0 | 0.00 | 0.08 | 0.00 | 80 | 1007.8 |
| 20260506070549 | 57 | 31 | 0.0 | 0.0 | 0.00 | 0.08 | 0.00 | 80 | 1007.8 |
| 20260506062515 | 58 | 31 | 0.0 | 0.0 | 0.00 | 0.08 | 0.00 | 80 | 1007.5 |
| 20260506061514 | 58 | 31 | 0.0 | 1.0 | 0.00 | 0.08 | 0.00 | 79 | 1007.8 |
| 20260506060411 | 58 | 31 | 0.0 | 1.0 | 0.00 | 0.08 | 0.00 | 80 | 1007.5 |
| 20260506051407 | 59 | 31 | 0.0 | 4.0 | 0.00 | 0.08 | 0.00 | 80 | 1007.5 |
| 20260506050232 | 59 | 31 | 1.0 | 4.0 | 0.00 | 0.08 | 0.00 | 80 | 1007.8 |
| 20260506044231 | 59 | 355 | 0.0 | 3.0 | 0.00 | 0.08 | 0.00 | 79 | 1007.5 |
| 20260506043230 | 59 | 38 | 0.0 | 2.0 | 0.00 | 0.08 | 0.00 | 79 | 1007.8 |
| 20260506042229 | 59 | 38 | 0.0 | 2.0 | 0.00 | 0.08 | 0.00 | 79 | 1007.5 |
| 20260506041229 | 59 | 38 | 0.0 | 0.0 | 0.00 | 0.08 | 0.00 | 79 | 1007.5 |
| 20260506040156 | 59 | 38 | 0.0 | 1.0 | 0.00 | 0.08 | 0.00 | 79 | 1007.5 |
| 20260506035125 | 59 | 38 | 0.0 | 2.0 | 0.01 | 0.08 | 0.08 | 79 | 1007.5 |
| 20260506034124 | 59 | 38 | 1.0 | 2.0 | 0.01 | 0.08 | 0.08 | 79 | 1007.5 |
| 20260506033123 | 59 | 38 | 0.0 | 2.0 | 0.01 | 0.08 | 0.08 | 79 | 1007.5 |
| 20260506032051 | 59 | 38 | 1.0 | 2.0 | 0.01 | 0.08 | 0.08 | 79 | 1007.5 |
| 20260506031050 | 59 | 38 | 0.0 | 2.0 | 0.01 | 0.08 | 0.08 | 79 | 1007.5 |
| 20260506030018 | 60 | 38 | 0.0 | 0.0 | 0.01 | 0.08 | 0.08 | 78 | 1007.5 |
| 20260506025017 | 60 | 38 | 0.0 | 0.0 | 0.00 | 0.07 | 0.07 | 78 | 1007.5 |
| 20260506024017 | 60 | 38 | 0.0 | 0.0 | 0.00 | 0.07 | 0.07 | 78 | 1007.5 |
| 20260506023016 | 60 | 38 | 0.0 | 0.0 | 0.00 | 0.07 | 0.07 | 78 | 1007.5 |
| 20260506021911 | 60 | 38 | 0.0 | 0.0 | 0.00 | 0.07 | 0.07 | 78 | 1007.5 |
| 20260506020911 | 60 | 38 | 0.0 | 1.0 | 0.00 | 0.07 | 0.07 | 78 | 1007.5 |
| 20260506015910 | 61 | 38 | 0.0 | 1.0 | 0.00 | 0.07 | 0.07 | 78 | 1007.5 |
| 20260506014909 | 61 | 38 | 0.0 | 2.0 | 0.00 | 0.07 | 0.07 | 78 | 1007.5 |
| 20260506013908 | 61 | 38 | 0.0 | 2.0 | 0.00 | 0.07 | 0.07 | 78 | 1007.8 |
| 20260506012907 | 61 | 38 | 0.0 | 1.0 | 0.00 | 0.07 | 0.07 | 78 | 1007.5 |
| 20260506011804 | 61 | 38 | 0.0 | 0.0 | 0.00 | 0.07 | 0.07 | 78 | 1007.5 |
| 20260506010804 | 62 | 38 | 0.0 | 0.0 | 0.00 | 0.07 | 0.07 | 78 | 1007.5 |
| 20260506005803 | 61 | 38 | 0.0 | 0.0 | 0.00 | 0.07 | 0.07 | 78 | 1007.1 |
| 20260506004802 | 61 | 38 | 0.0 | 2.0 | 0.00 | 0.07 | 0.07 | 78 | 1007.1 |
| 20260506003801 | 61 | 38 | 0.0 | 2.0 | 0.00 | 0.07 | 0.07 | 78 | 1007.1 |
| 20260506002800 | 61 | 38 | 0.0 | 2.0 | 0.00 | 0.07 | 0.07 | 77 | 1006.8 |
| 20260506001759 | 61 | 38 | 1.0 | 2.0 | 0.00 | 0.07 | 0.07 | 77 | 1006.8 |
| 20260506000758 | 62 | 38 | 1.0 | 2.0 | 0.00 | 0.07 | 0.07 | 77 | 1006.8 |
| 20260505235757 | 62 | 38 | 0.0 | 0.0 | 0.00 | 0.07 | 0.07 | 77 | 1006.4 |
| 20260505234725 | 62 | 38 | 0.0 | 0.0 | 0.00 | 0.07 | 0.07 | 77 | 1006.4 |
| 20260505233725 | 63 | 38 | 0.0 | 0.0 | 0.00 | 0.07 | 0.07 | 77 | 1006.4 |
| 20260505232724 | 63 | 38 | 0.0 | 0.0 | 0.00 | 0.07 | 0.07 | 77 | 1005.8 |
| 20260505231724 | 63 | 38 | 0.0 | 0.0 | 0.00 | 0.07 | 0.07 | 77 | 1005.8 |